Regional Weather Roundup
Issued by NWS

Home | Current Version | Previous Version | Text Only | Print | Product List | Glossary Off
Versions: 1 2 3 4 5 6 7 8 9 10 11 12 13 14 15 16 17 18 19 20 21 22 23 24 25 26 27

000
ASUS45 KTFX 281110
RWRMT
MONTANA REGIONAL WEATHER ROUNDUP
NATIONAL WEATHER SERVICE GREAT FALLS MT
500 AM MDT FRI APR 28 2017

NOTE: "FAIR" INDICATES FEW OR NO CLOUDS BELOW 12000 FEET WITH NO
SIGNIFICANT WEATHER AND/OR OBSTRUCTIONS TO VISIBILITY.

MTZ001>007-043-281200-
WEST OF THE DIVIDE

CITY           SKY/WX    TMP DP  RH WIND       PRES   REMARKS
KALISPELL      CLOUDY    39  38  96 CALM      29.96R
MISSOULA       CLOUDY    39  32  76 CALM      29.99R
BUTTE          CLOUDY    29  21  72 W7        29.92R WCI  22
MULLAN PASS    CLOUDY    27  27 100 VRB5      29.93R FOG
ANACONDA         N/A     28  21  74 CALM      29.94R
DEER LODGE       N/A     27  19  74 CALM      29.97R
EUREKA           N/A     39  36  87 SE5       29.95R
HAMILTON         N/A     36  25  64 S3        29.97S
LIBBY            N/A     34  34 100 CALM      29.96R
PLAINS           N/A     41  34  76 CALM      29.99R
THOMPSON FALLS   N/A     39  36  89 CALM      30.04R
$$

MTZ008-052>055-281200-
SOUTHWEST MONTANA

CITY           SKY/WX    TMP DP  RH WIND       PRES   REMARKS
BOZEMAN        CLOUDY    36  33  89 W7        29.90R WCI  30
DILLON         CLOUDY    31  23  72 W7        29.90R WCI  24
ENNIS          CLOUDY    28  28 100 N7        29.93R WCI  21
THREE FORKS      N/A     35  35 100 CALM      29.91R
TWIN BRIDGES     N/A     32  18  56 NW5       29.91R
$$

MTZ009-010-012-014-046-048-049-054-281200-
EAST SLOPES AND CENTRAL MONTANA

CITY           SKY/WX    TMP DP  RH WIND       PRES   REMARKS
CUT BANK       CLOUDY    34  33  96 NW9       29.91R WCI  27
GREAT FALLS    CLOUDY    37  34  89 SW5       29.91R
MALMSTROM AFB  CLOUDY    37  37  99 S5        29.92R
HELENA         CLOUDY    35  26  69 CALM      29.92R
AUGUSTA        CLOUDY    32  28  85 NW10      29.90R WCI  23
BOWMANS CRNR     N/A     29  28  98 SW8       29.89R WCI  21
CHOTEAU          N/A     34  30  86 CALM      29.93R
FAIRFIELD      MOCLDY    33  31  92 CALM      29.90R
POWER          CLOUDY    35  34  96 W5        29.90R
RAYNESFORD     DRIZZLE   35  35  99 CALM      29.91R
ULM            CLOUDY    36  34  94 CALM      29.92R
$$

MTZ011-013-016-021-045-047-050-051-281200-
NORTH CENTRAL MONTANA

CITY           SKY/WX    TMP DP  RH WIND       PRES   REMARKS
HAVRE          PTCLDY    29  28  96 CALM      29.92R
LEWISTOWN      CLOUDY    35  34  96 W9        29.88R WCI  28
CHINOOK          N/A     30  30 100 CALM      29.93R VSB 1/4
DENTON         MOCLDY    37  35  92 NW13      29.87R WCI  28
FORT BENTON      N/A     39  37  93 N5        29.93R
GEYSER         CLOUDY    36  34  93 W8        29.90R WCI  29
GRASS RANGE    LGT RAIN  38  36  93 N5        29.85R
JUDITH GAP     LGT RAIN  34  31  89 N21G28    29.85R WCI  23
STANFORD       MOCLDY    35  33  94 NW9       29.89R WCI  28
WINIFRED       CLOUDY    37  37  99 N6        29.89R WCI  32
$$

MTZ017>020-022>027-061-062-281200-
NORTHEAST MONTANA

CITY           SKY/WX    TMP DP  RH WIND       PRES   REMARKS
GLASGOW        CLOUDY    41  17  38 E13       29.90R
JORDAN           N/A     39  26  59 E6        29.86R
SIDNEY         CLOUDY    29  20  69 N3        29.94R
WOLF POINT     CLOUDY    30  18  60 NE5       29.93R
PLENTYWOOD       N/A     32  19  59 E3        29.95R
POPLAR           N/A     30  19  64 NE7       29.94R WCI  23
SCOBEY           N/A     33  15  48 CALM      29.92R
$$

MTZ028>42-056>058-281200-
SOUTHCENTRAL AND SOUTHEAST MONTANA

CITY           SKY/WX    TMP DP  RH WIND       PRES   REMARKS
BAKER          CLOUDY    24  20  84 SE6       29.87R WCI  17
BILLINGS       LGT RAIN  39  38  96 NE9       29.84R
LIVINGSTON     CLOUDY    36  30  79 W6        29.86R WCI  31
MILES CITY     CLOUDY    35  26  69 NE12      29.85R WCI  27
BIG TIMBER     CLOUDY    36  32  87 SW8       29.88R WCI  29
EKALAKA          N/A     35  24  64 E7        29.83R WCI  29
LAUREL           N/A     38  32  79 NW6       29.84S
ROUNDUP          N/A     39  33  79 NW13      29.78R WCI  31
$$

REGIONAL REPORTS...DAKOTAS

CITY           SKY/WX    TMP DP  RH WIND       PRES   REMARKS
WILLISTON      CLEAR     27  22  81 NE3       29.95R
MINOT          CLEAR     25  22  88 CALM      29.95R
DICKINSON      CLEAR     24  18  77 E8        29.89R WCI  15
BEACH          MOCLDY    23  18  80 E6        29.92R WCI  16
TIOGA            N/A     21  21 100 CALM      29.96R
WATFORD CITY     N/A     21  18  86 CALM      29.94R
BISMARCK       CLEAR     22  22 100 CALM      29.94R
GRAND FORKS    CLEAR     31  28  89 NW7       29.91R WCI  24
FARGO          CLEAR     25  23  92 W7        29.90R WCI  17
BUFFALO SD       N/A     31  26  82 NE9       29.78R WCI  23
RAPID CITY     FLURRIES  35  30  82 N8        29.79R WCI  29
$$

REGIONAL REPORTS...WYOMING/IDAHO/WASHINGTON

CITY           SKY/WX    TMP DP  RH WIND       PRES   REMARKS
GILLETTE       SNOW      32  32 100 NE10      29.74R WCI  24
SHERIDAN       LGT SNOW  33  32  96 W12       29.81S FOG     WCI  24
BUFFALO WY     SNOW      32  29  88 NW15G28   29.77R VSB 1/2 WCI  22
CODY           FLURRIES  33  31  92 N21G26    29.77R WCI  21
YELLOWSTONE LA   N/A     23  20  88 VRB3      29.79R
IDAHO FALLS    LGT SNOW  32  30  92 W3        29.87S FOG
SALMON         PTCLDY    32  25  74 CALM      29.96S
BOISE          PTCLDY    36  31  82 W7        30.00S WCI  30
SPOKANE        MOCLDY    39  32  76 S3        29.99R
$$

REGIONAL REPORTS...ALBERTA

CITY           SKY/WX    TMP DP  RH WIND       PRES   REMARKS
EDMONTON       CLEAR     27  23  86 CALM      30.01R
CALGARY        MOCLDY    32  28  86 W3        29.96R FOG
LETHBRIDGE     CLOUDY    36  32  87 N16       29.94R WCI  26
MEDICINE HAT   MOCLDY    34  32  93 N12       29.93R WCI  25
MILK RIVER       N/A     37  36  93 N6          N/A
ONEFOUR          N/A     34  34 100 E5          N/A
$$

REGIONAL REPORTS...SASKATCHEWAN

CITY           SKY/WX    TMP DP  RH WIND       PRES   REMARKS
SWIFT CURRENT  MOCLDY    36  36 100 VRB2      29.90R
REGINA         MOCLDY    30  21  69 SE10      29.95R WCI  21
SASKATOON      CLOUDY    37  19  48 E5        29.96R
CYPRESS HILLS    N/A     30  28  93 W1          N/A
VAL MARIE        N/A     37  36  93 N3          N/A
ROCKGLEN         N/A     34  18  51 SW10        N/A  WCI  26
ASSINIBOIA       N/A     32  32 100 NW5         N/A
$$




USA.gov is the U.S. government's official web portal to all federal, state and local government web resources and services.